����,���ϕ���(m/s),���ϕ���,�ő�u�ԕ���(m/s),�ő啗��������,�C��(��),���x(%),10���Ԉړ��ώZ�J��(mm),1���Ԉړ��ώZ�J��(mm),���J��(mm),�݌v�J��(mm)
2022-08-01T00:00:00+09:00,1.5,��쓌,4,��쐼,27.9,78.5,0,0,0,0
2022-08-01T00:01:00+09:00,1.5,��쓌,4,��쐼,28,78.4,0,0,0,0
2022-08-01T00:02:00+09:00,1.4,��쓌,4,��쐼,28,78.2,0,0,0,0
2022-08-01T00:03:00+09:00,1.5,��쓌,4,��쐼,28.1,77.9,0,0,0,0
2022-08-01T00:04:00+09:00,1.7,��쓌,5.4,�쓌,28.1,77.5,0,0,0,0
2022-08-01T00:05:00+09:00,1.6,��쓌,5.4,�쓌,28,77.5,0,0,0,0
2022-08-01T00:06:00+09:00,1.6,��쓌,5.4,�쓌,27.9,77.9,0,0,0,0
2022-08-01T00:07:00+09:00,1.7,��쓌,5.4,�쓌,27.9,78.3,0,0,0,0
2022-08-01T00:08:00+09:00,1.8,��쓌,5.4,�쓌,27.9,78.4,0,0,0,0
2022-08-01T00:09:00+09:00,2,��쓌,5.4,�쓌,27.9,78.7,0,0,0,0
2022-08-01T00:10:00+09:00,2,��쓌,5.4,�쓌,28,78.8,0,0,0,0
2022-08-01T00:11:00+09:00,2,��쓌,5.4,�쓌,28,78.7,0,0,0,0
2022-08-01T00:12:00+09:00,2.1,��쓌,5.4,�쓌,28,78.7,0,0,0,0
2022-08-01T00:13:00+09:00,2.1,��쓌,5.4,�쓌,28,78.7,0,0,0,0
2022-08-01T00:14:00+09:00,2.1,��쓌,5.2,��쓌,28,78.7,0,0,0,0
2022-08-01T00:15:00+09:00,2.2,��쓌,5.2,��쓌,28,78.8,0,0,0,0
2022-08-01T00:16:00+09:00,2.4,��쓌,5.2,��쓌,28,78.9,0,0,0,0
2022-08-01T00:17:00+09:00,2.4,��쓌,5.2,��쓌,27.9,79,0,0,0,0
2022-08-01T00:18:00+09:00,2.3,��쓌,5.2,��쓌,27.9,79.2,0,0,0,0
2022-08-01T00:19:00+09:00,2.2,��쓌,5.2,��쓌,27.9,79.2,0,0,0,0
2022-08-01T00:20:00+09:00,2.1,��쓌,5.2,��쓌,27.8,79.3,0,0,0,0
2022-08-01T00:21:00+09:00,2,��쓌,5.2,��쓌,27.8,79.7,0,0,0,0
2022-08-01T00:22:00+09:00,1.9,��쓌,5,�쓌,27.8,79.9,0,0,0,0
2022-08-01T00:23:00+09:00,1.8,��쓌,5,�쓌,27.8,79.8,0,0,0,0
2022-08-01T00:24:00+09:00,1.8,��쓌,5,�쓌,27.8,79.8,0,0,0,0
2022-08-01T00:25:00+09:00,1.8,��쓌,5,�쓌,27.8,79.9,0,0,0,0
2022-08-01T00:26:00+09:00,1.7,��쓌,4.1,��쓌,27.8,80,0,0,0,0
2022-08-01T00:27:00+09:00,1.7,��쓌,3.7,��쓌,27.8,80,0,0,0,0
2022-08-01T00:28:00+09:00,1.7,��쓌,3.7,��쓌,27.8,79.9,0,0,0,0
2022-08-01T00:29:00+09:00,1.7,��쓌,3.7,��쓌,27.8,79.9,0,0,0,0
2022-08-01T00:30:00+09:00,1.7,��쓌,3.7,��쓌,27.8,80.1,0,0,0,0
2022-08-01T00:31:00+09:00,1.8,��쓌,3.8,�쓌,27.8,80.3,0,0,0,0
2022-08-01T00:32:00+09:00,1.8,��쓌,3.8,�쓌,27.8,80.4,0,0,0,0
2022-08-01T00:33:00+09:00,1.9,��쓌,3.8,�쓌,27.8,80.4,0,0,0,0
2022-08-01T00:34:00+09:00,1.9,��쓌,3.8,�쓌,27.8,80.1,0,0,0,0
2022-08-01T00:35:00+09:00,1.8,��쓌,3.8,�쓌,27.8,80,0,0,0,0
2022-08-01T00:36:00+09:00,1.7,��쓌,3.8,�쓌,27.8,79.9,0,0,0,0
2022-08-01T00:37:00+09:00,1.7,��쓌,3.8,�쓌,27.8,79.9,0,0,0,0
2022-08-01T00:38:00+09:00,1.7,��쓌,3.8,�쓌,27.8,79.8,0,0,0,0
2022-08-01T00:39:00+09:00,1.7,��쓌,3.8,�쓌,27.9,79.6,0,0,0,0
2022-08-01T00:40:00+09:00,1.7,��쓌,3.8,�쓌,27.8,79.6,0,0,0,0
2022-08-01T00:41:00+09:00,1.7,��쓌,3.7,��쓌,27.8,79.5,0,0,0,0
2022-08-01T00:42:00+09:00,1.7,��쓌,3.6,��쓌,27.8,79.5,0,0,0,0
2022-08-01T00:43:00+09:00,1.6,��쓌,3.5,��쓌,27.9,79.5,0,0,0,0
2022-08-01T00:44:00+09:00,1.7,��쓌,3.9,�쓌,27.8,79.5,0,0,0,0
2022-08-01T00:45:00+09:00,1.7,��쓌,3.9,�쓌,27.9,79.5,0,0,0,0
2022-08-01T00:46:00+09:00,1.8,��쓌,3.9,�쓌,27.9,79.4,0,0,0,0
2022-08-01T00:47:00+09:00,1.8,��쓌,3.9,�쓌,27.8,79.5,0,0,0,0
2022-08-01T00:48:00+09:00,1.8,��쓌,3.9,�쓌,27.8,79.5,0,0,0,0
2022-08-01T00:49:00+09:00,1.8,��쓌,3.9,�쓌,27.8,79.5,0,0,0,0
2022-08-01T00:50:00+09:00,1.8,��쓌,3.9,�쓌,27.9,79.5,0,0,0,0
2022-08-01T00:51:00+09:00,1.7,��쓌,3.9,�쓌,27.9,79.5,0,0,0,0
2022-08-01T00:52:00+09:00,1.7,��,3.9,�쓌,27.9,79.4,0,0,0,0
2022-08-01T00:53:00+09:00,1.8,��,5,��,27.9,79.3,0,0,0,0
2022-08-01T00:54:00+09:00,1.7,��,5,��,27.9,79.3,0,0,0,0
2022-08-01T00:55:00+09:00,1.8,��,5,��,27.9,79.3,0,0,0,0
2022-08-01T00:56:00+09:00,1.7,��,5,��,27.8,79.3,0,0,0,0
2022-08-01T00:57:00+09:00,1.8,��,5,��,27.8,79.4,0,0,0,0
2022-08-01T00:58:00+09:00,1.8,��,5,��,27.8,79.4,0,0,0,0
2022-08-01T00:59:00+09:00,1.8,��,5,��,27.8,79.4,0,0,0,0
2022-08-01T01:00:00+09:00,1.8,��쓌,5,��,27.8,79.4,0,0,0,0
2022-08-01T01:01:00+09:00,1.8,��쓌,5,��,27.8,79.3,0,0,0,0
2022-08-01T01:02:00+09:00,1.7,��쓌,5,��,27.8,79.2,0,0,0,0
2022-08-01T01:03:00+09:00,1.8,��쓌,4.2,�쓌,27.7,79.5,0,0,0,0
2022-08-01T01:04:00+09:00,1.8,��쓌,4.2,�쓌,27.8,79.6,0,0,0,0
2022-08-01T01:05:00+09:00,1.6,��쓌,4.2,�쓌,27.8,79.4,0,0,0,0
2022-08-01T01:06:00+09:00,1.6,��쓌,4.2,�쓌,27.7,79.4,0,0,0,0
2022-08-01T01:07:00+09:00,1.5,��쓌,4.2,�쓌,27.7,79.5,0,0,0,0
2022-08-01T01:08:00+09:00,1.5,��쓌,4.2,�쓌,27.7,79.5,0,0,0,0
2022-08-01T01:09:00+09:00,1.5,��쓌,4.2,�쓌,27.7,79.5,0,0,0,0
2022-08-01T01:10:00+09:00,1.4,��쓌,4.2,�쓌,27.8,79.4,0,0,0,0
2022-08-01T01:11:00+09:00,1.4,��쓌,4.2,�쓌,27.7,79.5,0,0,0,0
2022-08-01T01:12:00+09:00,1.4,��쓌,4.2,�쓌,27.7,79.5,0,0,0,0
2022-08-01T01:13:00+09:00,1.3,��쓌,2.8,��쓌,27.7,79.6,0,0,0,0
2022-08-01T01:14:00+09:00,1.3,��,3.3,��쓌,27.7,79.4,0,0,0,0
2022-08-01T01:15:00+09:00,1.3,��,3.3,��쓌,27.7,79.4,0,0,0,0
2022-08-01T01:16:00+09:00,1.3,��,3.3,��쓌,27.8,79.2,0,0,0,0
2022-08-01T01:17:00+09:00,1.4,��,3.3,��쓌,27.7,79,0,0,0,0
2022-08-01T01:18:00+09:00,1.4,��,3.3,��쓌,27.8,79.1,0,0,0,0
2022-08-01T01:19:00+09:00,1.5,��,3.9,��쓌,27.8,79,0,0,0,0
2022-08-01T01:20:00+09:00,1.6,��,4,��쓌,27.8,78.9,0,0,0,0
2022-08-01T01:21:00+09:00,1.8,��,4,��쓌,27.8,78.8,0,0,0,0
2022-08-01T01:22:00+09:00,1.8,��,4,��쓌,27.8,78.7,0,0,0,0
2022-08-01T01:23:00+09:00,1.9,��,4,��쓌,27.8,78.6,0,0,0,0
2022-08-01T01:24:00+09:00,1.8,��쓌,4,��쓌,27.8,78.5,0,0,0,0
2022-08-01T01:25:00+09:00,1.8,��쓌,4,��쓌,27.7,78.6,0,0,0,0
2022-08-01T01:26:00+09:00,1.9,��쓌,4,��쓌,27.7,78.8,0,0,0,0
2022-08-01T01:27:00+09:00,1.9,��쓌,4,��쓌,27.6,79,0,0,0,0
2022-08-01T01:28:00+09:00,1.9,��쓌,4,��쓌,27.7,79.2,0,0,0,0
2022-08-01T01:29:00+09:00,1.8,��쓌,4,��쓌,27.7,79,0,0,0,0
2022-08-01T01:30:00+09:00,1.7,��쓌,3.9,��쓌,27.7,78.8,0,0,0,0
2022-08-01T01:31:00+09:00,1.7,��쓌,3.9,��쓌,27.7,78.7,0,0,0,0
2022-08-01T01:32:00+09:00,1.7,��쓌,3.9,��쓌,27.7,78.6,0,0,0,0
2022-08-01T01:33:00+09:00,1.6,��쓌,3.9,��쓌,27.6,78.6,0,0,0,0
2022-08-01T01:34:00+09:00,1.6,��,3.9,��쓌,27.6,78.7,0,0,0,0
2022-08-01T01:35:00+09:00,1.5,��,3.9,��쓌,27.5,79.1,0,0,0,0
2022-08-01T01:36:00+09:00,1.5,��,3.9,��쓌,27.5,79.4,0,0,0,0
2022-08-01T01:37:00+09:00,1.4,��,3.6,�쓌,27.5,79.6,0,0,0,0
2022-08-01T01:38:00+09:00,1.4,��,3.1,��쓌,27.5,79.9,0,0,0,0
2022-08-01T01:39:00+09:00,1.5,��,3.5,��쓌,27.5,80,0,0,0,0
2022-08-01T01:40:00+09:00,1.5,��,3.5,��쓌,27.6,79.8,0,0,0,0
2022-08-01T01:41:00+09:00,1.4,��쓌,3.5,��쓌,27.5,79.6,0,0,0,0
2022-08-01T01:42:00+09:00,1.5,��쓌,4.4,��쓌,27.5,79.8,0,0,0,0
2022-08-01T01:43:00+09:00,1.5,��쓌,4.4,��쓌,27.5,79.8,0,0,0,0
2022-08-01T01:44:00+09:00,1.6,��쓌,4.4,��쓌,27.5,80,0,0,0,0
2022-08-01T01:45:00+09:00,1.6,��쓌,4.4,��쓌,27.5,80,0,0,0,0
2022-08-01T01:46:00+09:00,1.7,��쓌,4.4,��쓌,27.4,79.9,0,0,0,0
2022-08-01T01:47:00+09:00,1.7,��쓌,4.4,��쓌,27.4,80,0,0,0,0
2022-08-01T01:48:00+09:00,1.6,��쓌,4.4,��쓌,27.4,80.2,0,0,0,0
2022-08-01T01:49:00+09:00,1.5,��쓌,4.4,��쓌,27.5,80.4,0,0,0,0
2022-08-01T01:50:00+09:00,1.6,��쓌,4.4,��쓌,27.4,80.3,0,0,0,0
2022-08-01T01:51:00+09:00,1.6,��쓌,4.4,��쓌,27.5,80.4,0,0,0,0
2022-08-01T01:52:00+09:00,1.6,��쓌,4.3,��쓌,27.4,80.3,0,0,0,0
2022-08-01T01:53:00+09:00,1.6,��쓌,4.3,��쓌,27.5,80.5,0,0,0,0
2022-08-01T01:54:00+09:00,1.8,��쓌,4.6,��쓌,27.4,80.5,0,0,0,0
2022-08-01T01:55:00+09:00,1.8,��쓌,4.6,��쓌,27.5,80.5,0,0,0,0
2022-08-01T01:56:00+09:00,1.8,��쓌,4.6,��쓌,27.4,80.4,0,0,0,0
2022-08-01T01:57:00+09:00,1.8,��,4.6,��쓌,27.5,80.5,0,0,0,0
2022-08-01T01:58:00+09:00,1.8,��쓌,4.6,��쓌,27.4,80.4,0,0,0,0
2022-08-01T01:59:00+09:00,1.9,��쓌,4.6,��쓌,27.4,80.4,0,0,0,0
2022-08-01T02:00:00+09:00,2,��쓌,4.7,��쓌,27.4,80.5,0,0,0,0
2022-08-01T02:01:00+09:00,2,��쓌,4.7,��쓌,27.4,80.7,0,0,0,0
2022-08-01T02:02:00+09:00,2,��쓌,4.7,��쓌,27.4,80.5,0,0,0,0
2022-08-01T02:03:00+09:00,2,��쓌,4.7,��쓌,27.4,80.7,0,0,0,0
2022-08-01T02:04:00+09:00,2,��쓌,4.7,��쓌,27.4,80.7,0,0,0,0
2022-08-01T02:05:00+09:00,2,��,4.7,��쓌,27.4,80.7,0,0,0,0
2022-08-01T02:06:00+09:00,2,��쓌,4.7,��쓌,27.4,80.8,0,0,0,0
2022-08-01T02:07:00+09:00,2.1,��쓌,4.7,��쓌,27.4,80.9,0,0,0,0
2022-08-01T02:08:00+09:00,2.2,��쓌,4.7,��쓌,27.4,80.9,0,0,0,0
2022-08-01T02:09:00+09:00,2.1,��쓌,4.7,��쓌,27.3,81,0,0,0,0
2022-08-01T02:10:00+09:00,1.9,��쓌,4.5,��쓌,27.3,81.1,0,0,0,0
2022-08-01T02:11:00+09:00,2,��쓌,4.5,��쓌,27.3,81.3,0,0,0,0
2022-08-01T02:12:00+09:00,2.1,��쓌,4.5,��쓌,27.3,81.4,0,0,0,0
2022-08-01T02:13:00+09:00,2.1,��쓌,4.5,��쓌,27.3,81.3,0,0,0,0
2022-08-01T02:14:00+09:00,2.2,��쓌,5.1,�쓌,27.3,81.3,0,0,0,0
2022-08-01T02:15:00+09:00,2.2,��쓌,5.1,�쓌,27.3,81.4,0,0,0,0
2022-08-01T02:16:00+09:00,2.2,��쓌,5.1,�쓌,27.3,81.4,0,0,0,0
2022-08-01T02:17:00+09:00,2.2,��쓌,5.1,�쓌,27.3,81.4,0,0,0,0
2022-08-01T02:18:00+09:00,2.2,��쓌,5.1,�쓌,27.3,81.5,0,0,0,0
2022-08-01T02:19:00+09:00,2.1,��쓌,5.1,�쓌,27.3,81.4,0,0,0,0
2022-08-01T02:20:00+09:00,2.2,��쓌,5.1,�쓌,27.3,81.5,0,0,0,0
2022-08-01T02:21:00+09:00,2.2,��쓌,5.1,�쓌,27.3,81.8,0,0,0,0
2022-08-01T02:22:00+09:00,2.1,��쓌,5.1,�쓌,27.3,81.7,0,0,0,0
2022-08-01T02:23:00+09:00,2.1,��쓌,5.1,�쓌,27.2,81.8,0,0,0,0
2022-08-01T02:24:00+09:00,2,��쓌,4.6,��쓌,27.3,82,0,0,0,0
2022-08-01T02:25:00+09:00,1.9,��쓌,4.6,��쓌,27.3,81.7,0,0,0,0
2022-08-01T02:26:00+09:00,1.9,��쓌,4.6,��쓌,27.3,81.7,0,0,0,0
2022-08-01T02:27:00+09:00,2,��쓌,5.3,��쓌,27.3,82,0,0,0,0
2022-08-01T02:28:00+09:00,2,��쓌,5.3,��쓌,27.2,82.1,0,0,0,0
2022-08-01T02:29:00+09:00,2.1,��쓌,5.3,��쓌,27.2,82.2,0,0,0,0
2022-08-01T02:30:00+09:00,2,��쓌,5.3,��쓌,27.2,82.5,0,0,0,0
2022-08-01T02:31:00+09:00,2,��쓌,5.3,��쓌,27.2,82.8,0,0,0,0
2022-08-01T02:32:00+09:00,2.1,��쓌,5.3,��쓌,27.2,82.8,0,0,0,0
2022-08-01T02:33:00+09:00,2.1,��쓌,5.3,��쓌,27.2,82.9,0,0,0,0
2022-08-01T02:34:00+09:00,2,��쓌,5.3,��쓌,27.2,83,0,0,0,0
2022-08-01T02:35:00+09:00,2,��쓌,5.3,��쓌,27.2,82.8,0,0,0,0
2022-08-01T02:36:00+09:00,2.1,��쓌,5.3,��쓌,27.2,82.9,0,0,0,0
2022-08-01T02:37:00+09:00,2,��쓌,4.5,��쓌,27.2,82.9,0,0,0,0
2022-08-01T02:38:00+09:00,2,��쓌,4.5,��쓌,27.2,82.8,0,0,0,0
2022-08-01T02:39:00+09:00,2,��쓌,4.5,��쓌,27.2,83,0,0,0,0
2022-08-01T02:40:00+09:00,2.1,��쓌,4.5,��쓌,27.2,82.9,0,0,0,0
2022-08-01T02:41:00+09:00,2.1,��쓌,4.5,��쓌,27.2,83,0,0,0,0
2022-08-01T02:42:00+09:00,2.1,��쓌,4.5,��쓌,27.2,83.3,0,0,0,0
2022-08-01T02:43:00+09:00,2.1,��쓌,4.1,��쓌,27.2,83.3,0,0,0,0
2022-08-01T02:44:00+09:00,2.2,��쓌,4.1,��쓌,27.2,83.3,0,0,0,0
2022-08-01T02:45:00+09:00,2.3,��쓌,5.4,��쓌,27.2,83.3,0,0,0,0
2022-08-01T02:46:00+09:00,2.3,��쓌,5.4,��쓌,27.2,83.3,0,0,0,0
2022-08-01T02:47:00+09:00,2.4,��쓌,5.4,��쓌,27.2,83.3,0,0,0,0
2022-08-01T02:48:00+09:00,2.4,��쓌,5.4,��쓌,27.2,83.3,0,0,0,0
2022-08-01T02:49:00+09:00,2.3,��쓌,5.4,��쓌,27.2,83.2,0,0,0,0
2022-08-01T02:50:00+09:00,2.3,��쓌,5.4,��쓌,27.2,83.2,0,0,0,0
2022-08-01T02:51:00+09:00,2.3,��쓌,5.4,��쓌,27.1,83.5,0,0,0,0
2022-08-01T02:52:00+09:00,2.3,��쓌,5.4,��쓌,27.1,83.6,0,0,0,0
2022-08-01T02:53:00+09:00,2.3,��쓌,5.4,��쓌,27.1,83.8,0,0,0,0
2022-08-01T02:54:00+09:00,2.3,��쓌,5.4,��쓌,27.1,83.9,0,0,0,0
2022-08-01T02:55:00+09:00,2.2,��쓌,5.4,��쓌,27.1,83.8,0,0,0,0
2022-08-01T02:56:00+09:00,2.1,��쓌,4.3,��쓌,27.1,83.9,0,0,0,0
2022-08-01T02:57:00+09:00,2,��쓌,4.5,��쓌,27,83.8,0,0,0,0
2022-08-01T02:58:00+09:00,2.1,��쓌,4.5,��쓌,27,84,0,0,0,0
2022-08-01T02:59:00+09:00,2.2,��쓌,4.9,��쓌,27.1,84.3,0,0,0,0
2022-08-01T03:00:00+09:00,2.1,��쓌,4.9,��쓌,27.1,84.3,0,0,0,0
2022-08-01T03:01:00+09:00,2.1,��쓌,4.9,��쓌,27.1,84,0,0,0,0
2022-08-01T03:02:00+09:00,2.1,��쓌,4.9,��쓌,27.1,84,0,0,0,0
2022-08-01T03:03:00+09:00,2.1,��쓌,4.9,��쓌,27,84,0,0,0,0
2022-08-01T03:04:00+09:00,2.1,��쓌,4.9,��쓌,27,84.2,0,0,0,0
2022-08-01T03:05:00+09:00,2,��쓌,4.9,��쓌,26.9,84.5,0,0,0,0
2022-08-01T03:06:00+09:00,2,��쓌,4.9,��쓌,26.9,84.7,0,0,0,0
2022-08-01T03:07:00+09:00,2,��쓌,4.9,��쓌,26.9,84.9,0,0,0,0
2022-08-01T03:08:00+09:00,1.9,��쓌,4.9,��쓌,26.9,84.9,0,0,0,0
2022-08-01T03:09:00+09:00,1.8,��쓌,4.1,�쓌,26.9,85,0,0,0,0
2022-08-01T03:10:00+09:00,1.8,��쓌,4.1,�쓌,26.9,85.1,0,0,0,0
2022-08-01T03:11:00+09:00,1.8,��쓌,4.1,�쓌,26.9,84.9,0,0,0,0
2022-08-01T03:12:00+09:00,1.8,��쓌,3.6,�쓌,26.9,84.9,0,0,0,0
2022-08-01T03:13:00+09:00,1.7,��쓌,3.5,��쓌,26.9,84.8,0,0,0,0
2022-08-01T03:14:00+09:00,1.7,��쓌,3.5,��쓌,26.9,85,0,0,0,0
2022-08-01T03:15:00+09:00,1.7,��쓌,3.5,��쓌,27,84.8,0,0,0,0
2022-08-01T03:16:00+09:00,1.6,��쓌,3.4,��쓌,26.9,84.7,0,0,0,0
2022-08-01T03:17:00+09:00,1.6,��쓌,3.4,��쓌,26.9,84.6,0,0,0,0
2022-08-01T03:18:00+09:00,1.6,��쓌,3.4,��쓌,26.8,84.7,0,0,0,0
2022-08-01T03:19:00+09:00,1.5,��쓌,3.4,��쓌,26.8,84.8,0,0,0,0
2022-08-01T03:20:00+09:00,1.5,��쓌,3.4,��쓌,26.8,85,0,0,0,0
2022-08-01T03:21:00+09:00,1.5,��쓌,3.4,��쓌,26.8,85.1,0,0,0,0
2022-08-01T03:22:00+09:00,1.4,��쓌,3.4,��쓌,26.8,85.2,0,0,0,0
2022-08-01T03:23:00+09:00,1.3,��쓌,3.4,��쓌,26.8,85.3,0,0,0,0
2022-08-01T03:24:00+09:00,1.2,��쓌,3.3,��쓌,26.7,85.3,0,0,0,0
2022-08-01T03:25:00+09:00,1.2,��쓌,2.8,��쓌,26.7,85.5,0,0,0,0
2022-08-01T03:26:00+09:00,1.2,��,2.8,��쓌,26.7,85.7,0,0,0,0
2022-08-01T03:27:00+09:00,1.1,��,2.7,��쓌,26.7,85.7,0,0,0,0
2022-08-01T03:28:00+09:00,1.1,��,2.7,��쓌,26.7,85.6,0,0,0,0
2022-08-01T03:29:00+09:00,1,��,2.7,��쓌,26.5,85.6,0,0,0,0
2022-08-01T03:30:00+09:00,1,��,2.3,��쓌,26.5,86.5,0,0,0,0
2022-08-01T03:31:00+09:00,1,��,3.8,��쓌,26.6,86.8,0,0,0,0
2022-08-01T03:32:00+09:00,1.1,��,3.8,��쓌,26.6,86.8,0,0,0,0
2022-08-01T03:33:00+09:00,1.1,��,3.8,��쓌,26.7,86.6,0,0,0,0
2022-08-01T03:34:00+09:00,1.2,��,3.8,��쓌,26.7,86.4,0,0,0,0
2022-08-01T03:35:00+09:00,1.2,��,3.8,��쓌,26.7,86.3,0,0,0,0
2022-08-01T03:36:00+09:00,1.2,��,3.8,��쓌,26.7,86.1,0,0,0,0
2022-08-01T03:37:00+09:00,1.2,��,3.8,��쓌,26.7,85.8,0,0,0,0
2022-08-01T03:38:00+09:00,1.3,��,3.8,��쓌,26.7,85.8,0,0,0,0
2022-08-01T03:39:00+09:00,1.3,��쓌,3.8,��쓌,26.7,85.9,0,0,0,0
2022-08-01T03:40:00+09:00,1.4,��쓌,3.8,��쓌,26.7,85.8,0,0,0,0
2022-08-01T03:41:00+09:00,1.3,��쓌,3,��쓌,26.7,85.6,0,0,0,0
2022-08-01T03:42:00+09:00,1.3,��쓌,3,��쓌,26.7,85.6,0,0,0,0
2022-08-01T03:43:00+09:00,1.3,��쓌,3,��쓌,26.6,85.7,0,0,0,0
2022-08-01T03:44:00+09:00,1.2,��쓌,3,��쓌,26.6,85.8,0,0,0,0
2022-08-01T03:45:00+09:00,1.2,��쓌,3,��쓌,26.6,86.2,0,0,0,0
2022-08-01T03:46:00+09:00,1.2,��쓌,3,��쓌,26.6,86.2,0,0,0,0
2022-08-01T03:47:00+09:00,1.2,��,3,��쓌,26.3,85.9,0,0,0,0
2022-08-01T03:48:00+09:00,1.1,��,3,��쓌,26.1,86.8,0,0,0,0
2022-08-01T03:49:00+09:00,1,��,3,��쓌,26,88.2,0,0,0,0
2022-08-01T03:50:00+09:00,1,��,2.7,��쓌,26.1,89.6,0,0,0,0
2022-08-01T03:51:00+09:00,1.1,��,2.7,��쓌,26.2,90.5,0,0,0,0
2022-08-01T03:52:00+09:00,1,��,2.7,��쓌,26.3,90.7,0,0,0,0
2022-08-01T03:53:00+09:00,1.1,��,2.7,��쓌,26.3,90.1,0,0,0,0
2022-08-01T03:54:00+09:00,1,��,2.7,��쓌,26.4,89.8,0,0,0,0
2022-08-01T03:55:00+09:00,1.1,��,2.7,��쓌,26.5,89.6,0,0,0,0
2022-08-01T03:56:00+09:00,1.1,��,2.7,��쓌,26.5,89.1,0,0,0,0
2022-08-01T03:57:00+09:00,1.2,��,3.4,�쓌,26.5,88.8,0,0,0,0
2022-08-01T03:58:00+09:00,1.2,��,3.4,�쓌,26.6,88.4,0,0,0,0
2022-08-01T03:59:00+09:00,1.2,��,3.4,�쓌,26.6,88,0,0,0,0
2022-08-01T04:00:00+09:00,1.2,��,3.4,�쓌,26.6,87.6,0,0,0,0
2022-08-01T04:01:00+09:00,1.2,��,3.5,��쓌,26.7,87.4,0,0,0,0
2022-08-01T04:02:00+09:00,1.3,��,3.5,��쓌,26.7,87.1,0,0,0,0
2022-08-01T04:03:00+09:00,1.3,��,3.5,��쓌,26.7,86.8,0,0,0,0
2022-08-01T04:04:00+09:00,1.3,��,3.5,��쓌,26.7,86.6,0,0,0,0
2022-08-01T04:05:00+09:00,1.4,��쓌,3.6,�쓌,26.7,86.5,0,0,0,0
2022-08-01T04:06:00+09:00,1.5,��쓌,3.6,�쓌,26.8,86.3,0,0,0,0
2022-08-01T04:07:00+09:00,1.4,��,3.6,�쓌,26.8,85.6,0,0,0,0
2022-08-01T04:08:00+09:00,1.4,��,3.6,�쓌,26.8,85.4,0,0,0,0
2022-08-01T04:09:00+09:00,1.5,��,3.6,�쓌,26.7,85.3,0,0,0,0
2022-08-01T04:10:00+09:00,1.5,��,3.6,�쓌,26.8,85.4,0,0,0,0
2022-08-01T04:11:00+09:00,1.5,��,3.6,�쓌,26.8,85.3,0,0,0,0
2022-08-01T04:12:00+09:00,1.5,��,3.6,�쓌,26.8,85.3,0,0,0,0
2022-08-01T04:13:00+09:00,1.5,��,3.6,�쓌,26.8,85.3,0,0,0,0
2022-08-01T04:14:00+09:00,1.5,��,3.6,�쓌,26.7,85.3,0,0,0,0
2022-08-01T04:15:00+09:00,1.5,��,3.3,�쓌,26.8,85.3,0,0,0,0
2022-08-01T04:16:00+09:00,1.5,��,3.3,�쓌,26.8,85.3,0,0,0,0
2022-08-01T04:17:00+09:00,1.5,��,3.3,�쓌,26.7,85.2,0,0,0,0
2022-08-01T04:18:00+09:00,1.4,��,3.3,�쓌,26.7,85.2,0,0,0,0
2022-08-01T04:19:00+09:00,1.4,��,3.3,�쓌,26.7,85.2,0,0,0,0
2022-08-01T04:20:00+09:00,1.4,��,3.3,�쓌,26.7,85.4,0,0,0,0
2022-08-01T04:21:00+09:00,1.4,��,4,��쓌,26.7,85.5,0,0,0,0
2022-08-01T04:22:00+09:00,1.4,��,4,��쓌,26.7,85.6,0,0,0,0
2022-08-01T04:23:00+09:00,1.4,��,4,��쓌,26.7,85.5,0,0,0,0
2022-08-01T04:24:00+09:00,1.4,��,4,��쓌,26.7,85.4,0,0,0,0
2022-08-01T04:25:00+09:00,1.3,��,4,��쓌,26.7,85.3,0,0,0,0
2022-08-01T04:26:00+09:00,1.3,��,4,��쓌,26.7,85.5,0,0,0,0
2022-08-01T04:27:00+09:00,1.3,��,4,��쓌,26.7,85.6,0,0,0,0
2022-08-01T04:28:00+09:00,1.3,��,4,��쓌,26.7,85.6,0,0,0,0
2022-08-01T04:29:00+09:00,1.3,��,4,��쓌,26.7,85.4,0,0,0,0
2022-08-01T04:30:00+09:00,1.3,��,4,��쓌,26.6,85.5,0,0,0,0
2022-08-01T04:31:00+09:00,1.2,��,2.3,��,26.6,85.7,0,0,0,0
2022-08-01T04:32:00+09:00,1.2,��,2.2,��쓌,26.5,85.7,0,0,0,0
2022-08-01T04:33:00+09:00,1.2,��,2.3,��,26.5,86,0,0,0,0
2022-08-01T04:34:00+09:00,1.2,��,2.3,��,26.6,86.2,0,0,0,0
2022-08-01T04:35:00+09:00,1.2,��,2.3,��,26.6,86.2,0,0,0,0
2022-08-01T04:36:00+09:00,1.2,��,2.3,��,26.6,86.1,0,0,0,0
2022-08-01T04:37:00+09:00,1.2,��,2.3,��,26.6,86.1,0,0,0,0
2022-08-01T04:38:00+09:00,1.1,��,2.3,��,26.1,85.7,0,0,0,0
2022-08-01T04:39:00+09:00,1.1,��,2.3,��,25.8,87.1,0,0,0,0
2022-08-01T04:40:00+09:00,1.1,��,2.3,��,25.7,89.3,0,0,0,0
2022-08-01T04:41:00+09:00,1.1,��쐼,2.3,��,25.6,90.9,0,0,0,0
2022-08-01T04:42:00+09:00,1.1,��쐼,2.3,��,25.6,92.2,0,0,0,0
2022-08-01T04:43:00+09:00,1,��쐼,2.1,��,25.7,93,0,0,0,0
2022-08-01T04:44:00+09:00,1.1,��쐼,2.5,��쓌,25.8,93.3,0,0,0,0
2022-08-01T04:45:00+09:00,1.1,��쐼,2.5,��쓌,26,93,0,0,0,0
2022-08-01T04:46:00+09:00,1.1,��쐼,2.5,��쓌,26.1,92.2,0,0,0,0
2022-08-01T04:47:00+09:00,1.1,��쐼,2.5,��쓌,26.2,91.3,0,0,0,0
2022-08-01T04:48:00+09:00,1.1,��,2.5,��쓌,26.2,90.7,0,0,0,0
2022-08-01T04:49:00+09:00,1.2,��,2.5,��쓌,26.3,90.4,0,0,0,0
2022-08-01T04:50:00+09:00,1.2,��,2.5,��쓌,26.3,89.9,0,0,0,0
2022-08-01T04:51:00+09:00,1.2,��,2.5,��쓌,26.4,89.4,0,0,0,0
2022-08-01T04:52:00+09:00,1.2,��,2.5,��쓌,26.4,88.8,0,0,0,0
2022-08-01T04:53:00+09:00,1.2,��,2.5,��쓌,26.4,88.5,0,0,0,0
2022-08-01T04:54:00+09:00,1.2,��,2.4,��쓌,26.1,87.9,0,0,0,0
2022-08-01T04:55:00+09:00,1.1,��쐼,2.4,��,25.8,88.5,0,0,0,0
2022-08-01T04:56:00+09:00,1.1,��쐼,2.4,��,25.7,90.1,0,0,0,0
2022-08-01T04:57:00+09:00,1.1,��쐼,2.4,��,25.5,90.9,0,0,0,0
2022-08-01T04:58:00+09:00,1.1,��쐼,2.4,��,25.4,92.1,0,0,0,0
2022-08-01T04:59:00+09:00,1,��쐼,2.4,��,25.3,93.1,0,0,0,0
2022-08-01T05:00:00+09:00,1,��쐼,2.4,��,25.3,94.1,0,0,0,0
2022-08-01T05:01:00+09:00,1,��쐼,2.4,��,25.3,94.9,0,0,0,0
2022-08-01T05:02:00+09:00,1,��쐼,2.4,��,25.5,95.4,0,0,0,0
2022-08-01T05:03:00+09:00,1,��쐼,2.4,��,25.6,95.4,0,0,0,0
2022-08-01T05:04:00+09:00,1.1,��쐼,2.4,��,25.7,95.1,0,0,0,0
2022-08-01T05:05:00+09:00,1,��쐼,2.2,��쓌,25.9,94.7,0,0,0,0
2022-08-01T05:06:00+09:00,1,��쐼,2.2,��쓌,26.1,93.7,0,0,0,0
2022-08-01T05:07:00+09:00,1,��,2.2,��쓌,26.1,92.6,0,0,0,0
2022-08-01T05:08:00+09:00,1,��,2.2,��쓌,26.2,91.6,0,0,0,0
2022-08-01T05:09:00+09:00,1.1,��,2.2,��쓌,26.2,90.9,0,0,0,0
2022-08-01T05:10:00+09:00,1.1,��,2.2,��쓌,26.2,90.4,0,0,0,0
2022-08-01T05:11:00+09:00,1.1,��,2.2,��쓌,26.2,90.2,0,0,0,0
2022-08-01T05:12:00+09:00,1.1,��,2.2,��쓌,26.2,89.9,0,0,0,0
2022-08-01T05:13:00+09:00,1.1,��,2.2,��쓌,26.2,89.6,0,0,0,0
2022-08-01T05:14:00+09:00,1.1,��,1.9,��쐼,26.2,89.4,0,0,0,0
2022-08-01T05:15:00+09:00,1.1,��,1.9,��쐼,26.2,89.5,0,0,0,0
2022-08-01T05:16:00+09:00,1.1,��,1.9,��쐼,26.2,89.6,0,0,0,0
2022-08-01T05:17:00+09:00,1.1,��,1.9,��쐼,26.2,89.7,0,0,0,0
2022-08-01T05:18:00+09:00,1.1,��,1.9,��쐼,26.2,89.4,0,0,0,0
2022-08-01T05:19:00+09:00,1.1,��,1.9,��쐼,26.2,89.2,0,0,0,0
2022-08-01T05:20:00+09:00,1.1,��,1.9,��쐼,26.1,89.3,0,0,0,0
2022-08-01T05:21:00+09:00,1,��,1.9,��쐼,26.1,89.5,0,0,0,0
2022-08-01T05:22:00+09:00,1,��,1.6,��쓌,26.1,89.6,0,0,0,0
2022-08-01T05:23:00+09:00,1.1,��,2.7,��쓌,26.1,90,0,0,0,0
2022-08-01T05:24:00+09:00,1.1,��,2.7,��쓌,26.2,90,0,0,0,0
2022-08-01T05:25:00+09:00,1.1,��,2.7,��쓌,26.3,89.8,0,0,0,0
2022-08-01T05:26:00+09:00,1.1,��,2.7,��쓌,26.3,89.2,0,0,0,0
2022-08-01T05:27:00+09:00,1.2,��,2.7,��쓌,26.3,88.8,0,0,0,0
2022-08-01T05:28:00+09:00,1.2,��,2.7,��쓌,26.3,88.7,0,0,0,0
2022-08-01T05:29:00+09:00,1.2,��,2.7,��쓌,26.3,88.7,0,0,0,0
2022-08-01T05:30:00+09:00,1.3,��,2.7,��쓌,26.2,88.6,0,0,0,0
2022-08-01T05:31:00+09:00,1.4,��,2.7,��쓌,26.2,88.9,0,0,0,0
2022-08-01T05:32:00+09:00,1.4,��,2.7,��쓌,26.3,89.2,0,0,0,0
2022-08-01T05:33:00+09:00,1.4,��,2.7,�쓌,26.3,89,0,0,0,0
2022-08-01T05:34:00+09:00,1.4,��,2.7,�쓌,26.3,89.1,0,0,0,0
2022-08-01T05:35:00+09:00,1.4,��,3,��쐼,26.4,89.1,0,0,0,0
2022-08-01T05:36:00+09:00,1.4,��,3,��쐼,26.4,88.8,0,0,0,0
2022-08-01T05:37:00+09:00,1.4,��,3,��쐼,26.4,88.5,0,0,0,0
2022-08-01T05:38:00+09:00,1.4,��,3,��쐼,26.4,88.5,0,0,0,0
2022-08-01T05:39:00+09:00,1.4,��,3,��쐼,26.4,88.4,0,0,0,0
2022-08-01T05:40:00+09:00,1.4,��,3,��쐼,26.3,88.4,0,0,0,0
2022-08-01T05:41:00+09:00,1.4,��,3,��쐼,26.3,88.6,0,0,0,0
2022-08-01T05:42:00+09:00,1.4,��,3,��쐼,26.4,88.8,0,0,0,0
2022-08-01T05:43:00+09:00,1.4,��,3,��쐼,26.4,88.6,0,0,0,0
2022-08-01T05:44:00+09:00,1.3,��,3,��쐼,26.3,88.4,0,0,0,0
2022-08-01T05:45:00+09:00,1.3,��,2.6,��,26.4,88.6,0,0,0,0
2022-08-01T05:46:00+09:00,1.3,��,2.6,��,26.4,88.6,0,0,0,0
2022-08-01T05:47:00+09:00,1.2,��,2.6,��,26.3,88.6,0,0,0,0
2022-08-01T05:48:00+09:00,1.2,��,2.6,��,26.3,88.8,0,0,0,0
2022-08-01T05:49:00+09:00,1.2,��,2.6,��,26.3,89,0,0,0,0
2022-08-01T05:50:00+09:00,1.2,��,2.6,��,26.3,89.2,0,0,0,0
2022-08-01T05:51:00+09:00,1.2,��,2.3,��,26.3,89.2,0,0,0,0
2022-08-01T05:52:00+09:00,1.2,��,3.2,��쐼,26.4,89.2,0,0,0,0
2022-08-01T05:53:00+09:00,1.2,��,3.2,��쐼,26.4,89.2,0,0,0,0
2022-08-01T05:54:00+09:00,1.3,��,3.3,��쓌,26.4,89.1,0,0,0,0
2022-08-01T05:55:00+09:00,1.3,��,3.3,��쓌,26.4,89,0,0,0,0
2022-08-01T05:56:00+09:00,1.4,��,3.3,��쓌,26.5,88.8,0,0,0,0
2022-08-01T05:57:00+09:00,1.5,��,4.7,�쓌,26.6,88.5,0,0,0,0
2022-08-01T05:58:00+09:00,1.6,��,4.7,�쓌,26.6,88.1,0,0,0,0
2022-08-01T05:59:00+09:00,1.6,��,4.7,�쓌,26.6,87.8,0,0,0,0
2022-08-01T06:00:00+09:00,1.7,��,4.7,�쓌,26.7,87.6,0,0,0,0
2022-08-01T06:01:00+09:00,1.7,��쓌,4.7,�쓌,26.7,87.5,0,0,0,0
2022-08-01T06:02:00+09:00,1.7,��쓌,4.7,�쓌,26.7,87.3,0,0,0,0
2022-08-01T06:03:00+09:00,1.8,��쓌,4.7,�쓌,26.7,87.2,0,0,0,0
2022-08-01T06:04:00+09:00,1.9,��쓌,4.7,�쓌,26.8,87.1,0,0,0,0
2022-08-01T06:05:00+09:00,1.9,��쓌,4.7,�쓌,26.9,86.8,0,0,0,0
2022-08-01T06:06:00+09:00,1.9,��쓌,4.7,�쓌,26.9,86.4,0,0,0,0
2022-08-01T06:07:00+09:00,1.8,��쓌,4.3,�쓌,26.9,86.1,0,0,0,0
2022-08-01T06:08:00+09:00,1.9,��쓌,4.3,�쓌,27,86.2,0,0,0,0
2022-08-01T06:09:00+09:00,1.8,��쓌,4.3,�쓌,27,85.9,0,0,0,0
2022-08-01T06:10:00+09:00,1.9,��쓌,4.3,�쓌,27.1,85.7,0,0,0,0
2022-08-01T06:11:00+09:00,2,��쓌,4.8,��쓌,27.1,85.6,0,0,0,0
2022-08-01T06:12:00+09:00,2,��쓌,4.8,��쓌,27.2,85.3,0,0,0,0
2022-08-01T06:13:00+09:00,2.1,��쓌,4.8,��쓌,27.2,84.6,0,0,0,0
2022-08-01T06:14:00+09:00,2.1,��쓌,4.8,��쓌,27.3,84.2,0,0,0,0
2022-08-01T06:15:00+09:00,2.1,��쓌,4.8,��쓌,27.3,84.1,0,0,0,0
2022-08-01T06:16:00+09:00,2.2,��쓌,4.8,��쓌,27.3,83.8,0,0,0,0
2022-08-01T06:17:00+09:00,2.2,��쓌,4.8,��쓌,27.4,83.8,0,0,0,0
2022-08-01T06:18:00+09:00,2.2,��쓌,4.8,��쓌,27.4,83.7,0,0,0,0
2022-08-01T06:19:00+09:00,2.2,��쓌,4.8,��쓌,27.4,83.7,0,0,0,0
2022-08-01T06:20:00+09:00,2.2,��쓌,4.8,��쓌,27.4,83.7,0,0,0,0
2022-08-01T06:21:00+09:00,2.1,��쓌,4.7,��쓌,27.4,83.7,0,0,0,0
2022-08-01T06:22:00+09:00,2.2,��쓌,4.8,��쓌,27.5,83.9,0,0,0,0
2022-08-01T06:23:00+09:00,2.1,��쓌,4.8,��쓌,27.5,83.6,0,0,0,0
2022-08-01T06:24:00+09:00,1.9,��쓌,4.8,��쓌,27.5,83,0,0,0,0
2022-08-01T06:25:00+09:00,1.9,��쓌,4.8,��쓌,27.5,83.3,0,0,0,0
2022-08-01T06:26:00+09:00,1.9,��쓌,4.8,��쓌,27.5,83.2,0,0,0,0
2022-08-01T06:27:00+09:00,1.8,��쓌,4.8,��쓌,27.6,83.2,0,0,0,0
2022-08-01T06:28:00+09:00,1.8,��쓌,4.8,��쓌,27.6,82.9,0,0,0,0
2022-08-01T06:29:00+09:00,2,��쓌,6.1,��쓌,27.7,82.7,0,0,0,0
2022-08-01T06:30:00+09:00,2,��쓌,6.1,��쓌,27.8,82.4,0,0,0,0
2022-08-01T06:31:00+09:00,2,��쓌,6.1,��쓌,27.8,82,0,0,0,0
2022-08-01T06:32:00+09:00,2,��,6.1,��쓌,27.8,82.1,0,0,0,0
2022-08-01T06:33:00+09:00,2,��,6.1,��쓌,27.8,82,0,0,0,0
2022-08-01T06:34:00+09:00,2.1,��쓌,6.1,��쓌,27.9,81.9,0,0,0,0
2022-08-01T06:35:00+09:00,2.1,��쓌,6.1,��쓌,27.9,81.9,0,0,0,0
2022-08-01T06:36:00+09:00,2.2,��쓌,6.1,��쓌,28,81.9,0,0,0,0
2022-08-01T06:37:00+09:00,2.3,��쓌,6.1,��쓌,28,81.4,0,0,0,0
2022-08-01T06:38:00+09:00,2.4,��쓌,6.1,��쓌,28,80.9,0,0,0,0
2022-08-01T06:39:00+09:00,2.2,��쓌,4.7,��쓌,28.1,80.8,0,0,0,0
2022-08-01T06:40:00+09:00,2.1,��쓌,4.7,��쓌,28.1,80.6,0,0,0,0
2022-08-01T06:41:00+09:00,2.1,��쓌,4.7,��쓌,28.2,80.8,0,0,0,0
2022-08-01T06:42:00+09:00,2.1,��쓌,4.7,��쓌,28.2,80.7,0,0,0,0
2022-08-01T06:43:00+09:00,2.1,��쓌,4.7,��쓌,28.3,80.5,0,0,0,0
2022-08-01T06:44:00+09:00,2,��쓌,4.7,��쓌,28.3,80.3,0,0,0,0
2022-08-01T06:45:00+09:00,1.9,��쓌,4.7,��쓌,28.3,80.1,0,0,0,0
2022-08-01T06:46:00+09:00,1.9,��쓌,4.7,��쓌,28.4,80.3,0,0,0,0
2022-08-01T06:47:00+09:00,1.7,��쓌,4.7,��쓌,28.3,79.6,0,0,0,0